Southern Junior High School, Massachusetts, United States
Lat: 42.38N, Lon: 71.1W
Wx Zone: MAZ014
Local Info
Past Weather Observations for Today

NOTE: This archive is for the closest National Weather Service station to Southern Junior High School. Information may differ from the station used for current weather conditions.

Time Weather Temperature Dewpoint Humidity Pressure Winds Precip Visibility
23:40
Overcast
Rain
43°F / 6°C 39°F / 4°C 87% 29.77 in
(1008 mb)
NW 18.4 mph
(NW 30 kph)
0.04 in
(1.02 mm)
2 1/2SM
23:33
Overcast
Light Rain
45°F / 7°C 39°F / 4°C 81% 29.74 in
(1007 mb)
NW 13.8 mph
(NW 22 kph)
0.03 in
(0.76 mm)
4SM
22:54
Overcast
Rain
46°F / 8°C 41°F / 5°C 82% 29.71 in
(1006 mb)
NW 19.6 mph
(NW 32 kph)
0.06 in
(1.52 mm)
6SM
22:42
Overcast
Rain
46°F / 8°C 41°F / 5°C 82% 29.71 in
(1006 mb)
NW 21.9 mph
(NW 35 kph)
0.05 in
(1.27 mm)
5SM
22:29
Overcast
Rain
46°F / 8°C 43°F / 6°C 87% 29.71 in
(1006 mb)
NW 21.9 mph
(NW 35 kph)
0.04 in
(1.02 mm)
5SM
21:54
Overcast
Light Rain
50°F / 10°C 46°F / 8°C 88% 29.68 in
(1005 mb)
W 15 mph
(W 24 kph)
0.02 in
(0.51 mm)
8SM
21:52
Overcast
Light Rain
50°F / 10°C 46°F / 8°C 88% 29.68 in
(1005 mb)
W 18.4 mph
(W 30 kph)
0.02 in
(0.51 mm)
7SM
21:26
Overcast
Light Rain
52°F / 11°C 48°F / 9°C 88% 29.65 in
(1004 mb)
WNW 21.9 mph
(WNW 35 kph)
0.02 in
(0.51 mm)
10SM
21:01
Overcast
Light Rain
55°F / 13°C 54°F / 12°C 94% 29.62 in
(1003 mb)
WNW 15 mph
(WNW 24 kph)
0.00 in
(0.00 mm)
6SM
20:54
Overcast
Rain
57°F / 14°C 54°F / 12°C 88% 29.62 in
(1003 mb)
WNW 19.6 mph
(WNW 32 kph)
0.17 in
(4.32 mm)
4SM
20:49
Overcast
Heavy Rain
57°F / 14°C 55°F / 13°C 94% 29.62 in
(1003 mb)
W 16.1 mph
(W 26 kph)
0.16 in
(4.06 mm)
3SM
20:40
Overcast
Rain
61°F / 16°C 57°F / 14°C 88% 29.59 in
(1002 mb)
SW 18.4 mph
(SW 30 kph)
0.11 in
(2.79 mm)
4SM
19:54
Overcast
Rain
61°F / 16°C 57°F / 14°C 88% 29.59 in
(1002 mb)
SSE 21.9 mph
(SSE 35 kph)
0.06 in
(1.52 mm)
3SM
18:54
Overcast
Light Rain
59°F / 15°C 55°F / 13°C 88% 29.59 in
(1002 mb)
SSE 20.7 mph
(SSE 33 kph)
0.02 in
(0.51 mm)
6SM
18:42
Overcast
Light Rain
59°F / 15°C 55°F / 13°C 88% 29.59 in
(1002 mb)
SSE 25.3 mph
(SSE 41 kph)
0.01 in
(0.25 mm)
10SM
17:54
Overcast
Light Rain
61°F / 16°C 55°F / 13°C 83% 29.59 in
(1002 mb)
SSE 21.9 mph
(SSE 35 kph)
0.03 in
(0.76 mm)
10SM
17:33
Overcast
Light Rain
61°F / 16°C 57°F / 14°C 88% 29.59 in
(1002 mb)
SSE 27.6 mph
(SSE 44 kph)
0.03 in
(0.76 mm)
6SM
17:12
Overcast
Light Rain
61°F / 16°C 57°F / 14°C 88% 29.59 in
(1002 mb)
S 26.5 mph
(S 43 kph)
0.02 in
(0.51 mm)
6SM
16:54
Overcast
Light Rain
63°F / 17°C 57°F / 14°C 83% 29.59 in
(1002 mb)
SSE 29.9 mph
(SSE 48 kph)
0.01 in
(0.25 mm)
5SM
15:54
Overcast
63°F / 17°C 57°F / 14°C 83% 29.59 in
(1002 mb)
SSE 33.4 mph
(SSE 54 kph)
0.02 in
(0.51 mm)
8SM
15:10
Overcast
Light Rain
61°F / 16°C 57°F / 14°C 88% 29.62 in
(1003 mb)
SSE 27.6 mph
(SSE 44 kph)
0.02 in
(0.51 mm)
4SM
14:54
Overcast
Light Rain
61°F / 16°C 57°F / 14°C 88% 29.62 in
(1003 mb)
SSE 27.6 mph
(SSE 44 kph)
0.08 in
(2.03 mm)
2 1/2SM
14:45
Overcast
Heavy Rain
61°F / 16°C 57°F / 14°C 88% 29.62 in
(1003 mb)
SSE 28.8 mph
(SSE 46 kph)
0.03 in
(0.76 mm)
2SM
14:31
Overcast
Light Rain
63°F / 17°C 57°F / 14°C 83% 29.62 in
(1003 mb)
S 34.5 mph
(S 56 kph)
0.00 in
(0.00 mm)
3SM
14:23
Overcast
Heavy Rain
63°F / 17°C 57°F / 14°C 83% 29.62 in
(1003 mb)
S 35.7 mph
(S 57 kph)
0.00 in
(0.00 mm)
1 3/4SM
14:14
Overcast
Light Rain
63°F / 17°C 57°F / 14°C 83% 29.62 in
(1003 mb)
S 33.4 mph
(S 54 kph)
0.00 in
(0.00 mm)
5SM
13:54
Overcast
Light Rain
63°F / 17°C 57°F / 14°C 83% 29.65 in
(1004 mb)
SSE 29.9 mph
(SSE 48 kph)
0.05 in
(1.27 mm)
4SM
13:08
Overcast
Light Rain
63°F / 17°C 57°F / 14°C 83% 29.68 in
(1005 mb)
S 34.5 mph
(S 56 kph)
0.00 in
(0.00 mm)
4SM
12:54
Overcast
Light Rain
63°F / 17°C 57°F / 14°C 83% 29.68 in
(1005 mb)
SSE 42.6 mph
(SSE 69 kph)
0.01 in
(0.25 mm)
5SM
12:46
Overcast
Light Rain
63°F / 17°C 57°F / 14°C 83% 29.68 in
(1005 mb)
SSE 26.5 mph
(SSE 43 kph)
0.00 in
(0.00 mm)
4SM
12:40
Overcast
Light Rain
63°F / 17°C 57°F / 14°C 83% 29.68 in
(1005 mb)
SSE 25.3 mph
(SSE 41 kph)
0.00 in
(0.00 mm)
1 3/4SM
11:54
Overcast
68°F / 20°C 55°F / 13°C 64% 29.68 in
(1005 mb)
SSE 35.7 mph
(SSE 57 kph)
- 10SM
10:54
Overcast
64°F / 18°C 54°F / 12°C 68% 29.74 in
(1007 mb)
S 28.8 mph
(S 46 kph)
- 10SM
10:12
Overcast
63°F / 17°C 55°F / 13°C 77% 29.77 in
(1008 mb)
S 29.9 mph
(S 48 kph)
- 10SM
09:54
Overcast
63°F / 17°C 55°F / 13°C 77% 29.77 in
(1008 mb)
S 25.3 mph
(S 41 kph)
0.00 in
(0.00 mm)
2SM
08:54
Overcast
Light Rain
61°F / 16°C 57°F / 14°C 88% 29.8 in
(1009 mb)
S 24.2 mph
(S 39 kph)
0.00 in
(0.00 mm)
2SM
08:49
Overcast
Light Rain
61°F / 16°C 57°F / 14°C 88% 29.8 in
(1009 mb)
S 24.2 mph
(S 39 kph)
0.00 in
(0.00 mm)
2 1/2SM
07:54
Overcast
61°F / 16°C 57°F / 14°C 88% 29.83 in
(1010 mb)
SSE 20.7 mph
(SSE 33 kph)
0.00 in
(0.00 mm)
10SM
07:31
Overcast
Fog And Mist
61°F / 16°C 57°F / 14°C 88% 29.83 in
(1010 mb)
S 17.3 mph
(S 28 kph)
0.00 in
(0.00 mm)
6SM
06:54
Overcast
Fog And Mist
59°F / 15°C 55°F / 13°C 88% 29.83 in
(1010 mb)
S 17.3 mph
(S 28 kph)
0.00 in
(0.00 mm)
3SM
06:46
Overcast
59°F / 15°C 55°F / 13°C 88% 29.83 in
(1010 mb)
SSE 17.3 mph
(SSE 28 kph)
0.00 in
(0.00 mm)
3SM
06:01
Overcast
57°F / 14°C 55°F / 13°C 94% 29.86 in
(1011 mb)
S 17.3 mph
(S 28 kph)
0.00 in
(0.00 mm)
3SM
05:54
Overcast
Light Rain
57°F / 14°C 55°F / 13°C 94% 29.86 in
(1011 mb)
S 13.8 mph
(S 22 kph)
0.02 in
(0.51 mm)
2 1/2SM
05:45
Overcast
Light Rain
57°F / 14°C 55°F / 13°C 94% 29.86 in
(1011 mb)
S 17.3 mph
(S 28 kph)
0.01 in
(0.25 mm)
2SM
05:27
Overcast
59°F / 15°C 55°F / 13°C 88% 29.86 in
(1011 mb)
SSE 16.1 mph
(SSE 26 kph)
- 3SM
04:54
Mostly Cloudy
61°F / 16°C 55°F / 13°C 83% 29.86 in
(1011 mb)
SSE 17.3 mph
(SSE 28 kph)
- 10SM
03:54
Overcast
61°F / 16°C 55°F / 13°C 83% 29.89 in
(1012 mb)
SSE 17.3 mph
(SSE 28 kph)
- 10SM
03:41
Overcast
61°F / 16°C 55°F / 13°C 83% 29.89 in
(1012 mb)
SSE 21.9 mph
(SSE 35 kph)
- 10SM
03:04
Overcast
61°F / 16°C 55°F / 13°C 83% 29.89 in
(1012 mb)
SSE 23 mph
(SSE 37 kph)
- 10SM
02:54
Overcast
61°F / 16°C 55°F / 13°C 83% 29.89 in
(1012 mb)
SSE 20.7 mph
(SSE 33 kph)
- 10SM
02:47
Overcast
61°F / 16°C 55°F / 13°C 83% 29.89 in
(1012 mb)
SSE 20.7 mph
(SSE 33 kph)
- 9SM
01:54
Overcast
61°F / 16°C 55°F / 13°C 83% 29.89 in
(1012 mb)
SSE 20.7 mph
(SSE 33 kph)
- 10SM
00:54
Overcast
61°F / 16°C 55°F / 13°C 83% 29.89 in
(1012 mb)
SW 20.7 mph
(SW 33 kph)
- 10SM
Time Weather Temperature Dewpoint Humidity Pressure Winds Precip Visibility


Weather for websites

WeatherForYou.com, LLC is not responsible for any damages or problems caused by this service. Current weather conditions are obtained from the closest station including government and personal stations which may have varying degrees of accuracy. Weather forecasts are derived from the NOAA NDFD. Like all things, this site belongs to Jesus Christ... He just trusts me to maintain it. If you have any questions or comments email webmaster@weatherforyou.com

Copyright © 2014, WeatherForYou.com LLC. All rights reserved.